Location: Chmeli�t?
(49.8978°N, 15.0526°E)
Time: 07:47:07
(UTC+00:00)

Cosmos 2074 Rocket - Pass Details

Date: 06 October 2020
Orbit: 967 x 987 km, 82.9° (Epoch: 30 October)

Event Time Altitude Azimuth Distance (km) Brightness Sun altitude
Rises 21:16:06 0° 351° (N) 3,693 7.8 -41.7°
Reaches altitude 10° 21:18:39 10° 353° (N) 2,738 6.9 -41.9°
Enters shadow 21:20:59 24° 356° (N) 1,891 5.8 -42.1°
